• In Hungary
  • List of Countries
  • For 7 days
  • Water Temperature
  • Satellite Maps
  • Weather Map
  • News
  • Weather Widgets
  • user-avatar
    Login

    Hourly Weather Urickoe

    Today, 20 June, Wednesday

    Time Temperature Precipitation Wind Pressure Humidity
    00:00 +19°C° 0.2 mm 2 mps 746 mmHg 84%
    01:00 +19°C° 0.2 mm 2 mps 746 mmHg 85%
    02:00 +18°C° 0.2 mm 2 mps 746 mmHg 87%
    03:00 +19°C° 0 mm 1 mps 746 mmHg 87%
    04:00 +19°C° 0.3 mm 2 mps 745 mmHg 86%
    05:00 +19°C° 0.3 mm 2 mps 745 mmHg 85%
    06:00 +20°C° 0.3 mm 3 mps 745 mmHg 84%
    07:00 +22°C° 0.2 mm 4 mps 745 mmHg 78%
    08:00 +25°C° 0.2 mm 4 mps 745 mmHg 72%
    09:00 +27°C° 0 mm 5 mps 745 mmHg 64%
    10:00 +27°C° 0.5 mm 6 mps 745 mmHg 62%
    11:00 +28°C° 0.5 mm 6 mps 745 mmHg 61%
    12:00 +28°C° 0.5 mm 7 mps 745 mmHg 59%
    13:00 +28°C° 0.4 mm 7 mps 744 mmHg 61%
    14:00 +28°C° 0.4 mm 7 mps 744 mmHg 62%
    15:00 +28°C° 0.4 mm 7 mps 744 mmHg 64%
    16:00 +27°C° 0.4 mm 7 mps 744 mmHg 68%
    17:00 +26°C° 0.4 mm 6 mps 744 mmHg 72%
    18:00 +25°C° 0.4 mm 5 mps 744 mmHg 76%
    19:00 +23°C° 0.1 mm 5 mps 744 mmHg 79%
    20:00 +21°C° 0.1 mm 4 mps 745 mmHg 83%
    21:00 +19°C° 0.1 mm 3 mps 745 mmHg 86%
    22:00 +18°C° 0 mm 3 mps 745 mmHg 87%
    23:00 +17°C° 0 mm 3 mps 745 mmHg 88%

    Tomorrow, 21 June, Thursday

    Time Temperature Precipitation Wind Pressure Humidity
    00:00 +16°C° 0 mm 3 mps 746 mmHg 89%
    01:00 +14°C° 0 mm 3 mps 746 mmHg 89%
    02:00 +14°C° 0 mm 3 mps 746 mmHg 89%
    03:00 +13°C° 0 mm 3 mps 746 mmHg 89%
    04:00 +14°C° 0 mm 3 mps 746 mmHg 87%
    05:00 +16°C° 0 mm 3 mps 746 mmHg 84%
    06:00 +17°C° 0 mm 4 mps 747 mmHg 82%
    07:00 +18°C° 0 mm 4 mps 747 mmHg 75%
    08:00 +20°C° 0 mm 4 mps 747 mmHg 68%
    09:00 +22°C° 0 mm 4 mps 747 mmHg 61%
    10:00 +23°C° 0 mm 5 mps 747 mmHg 58%
    11:00 +23°C° 0 mm 5 mps 747 mmHg 56%
    12:00 +24°C° 0 mm 6 mps 747 mmHg 53%
    13:00 +24°C° 0 mm 6 mps 746 mmHg 54%
    14:00 +24°C° 0 mm 6 mps 746 mmHg 54%
    15:00 +26°C° 0 mm 6 mps 746 mmHg 55%
    16:00 +25°C° 0 mm 5 mps 746 mmHg 59%
    17:00 +25°C° 0 mm 5 mps 746 mmHg 62%
    18:00 +23°C° 0 mm 4 mps 746 mmHg 66%
    19:00 +22°C° 0 mm 4 mps 746 mmHg 72%
    20:00 +20°C° 0 mm 3 mps 747 mmHg 78%
    21:00 +18°C° 0 mm 3 mps 747 mmHg 83%
    22:00 +18°C° 0 mm 3 mps 747 mmHg 85%
    23:00 +17°C° 0 mm 2 mps 747 mmHg 87%

    Day after tomorrow, 22 June, Friday

    Time Temperature Precipitation Wind Pressure Humidity
    00:00 +16°C° 0 mm 2 mps 747 mmHg 89%
    01:00 +16°C° 0 mm 2 mps 747 mmHg 90%
    02:00 +16°C° 0 mm 2 mps 748 mmHg 90%
    03:00 +16°C° 0 mm 2 mps 748 mmHg 91%
    04:00 +16°C° 0 mm 2 mps 748 mmHg 88%
    05:00 +17°C° 0 mm 2 mps 748 mmHg 86%
    06:00 +18°C° 0 mm 2 mps 748 mmHg 83%
    07:00 +20°C° 0 mm 2 mps 748 mmHg 77%
    08:00 +23°C° 0 mm 2 mps 748 mmHg 70%
    09:00 +24°C° 0 mm 2 mps 748 mmHg 64%
    10:00 +25°C° 0 mm 2 mps 748 mmHg 60%
    11:00 +26°C° 0 mm 2 mps 748 mmHg 56%
    12:00 +27°C° 0 mm 2 mps 748 mmHg 53%
    13:00 +28°C° 0 mm 2 mps 748 mmHg 51%
    14:00 +28°C° 0 mm 2 mps 747 mmHg 50%
    15:00 +28°C° 0 mm 2 mps 747 mmHg 49%
    16:00 +28°C° 0 mm 2 mps 747 mmHg 50%
    17:00 +28°C° 0 mm 1 mps 747 mmHg 52%
    18:00 +28°C° 0 mm 1 mps 747 mmHg 54%
    19:00 +26°C° 0 mm 1 mps 747 mmHg 60%
    20:00 +22°C° 0 mm 0 mps 747 mmHg 65%
    21:00 +20°C° 0 mm 0 mps 747 mmHg 71%
    22:00 +19°C° 0 mm 0 mps 747 mmHg 72%
    23:00 +19°C° 0 mm 0 mps 747 mmHg 74%

    23 June, Saturday

    Time Temperature Precipitation Wind Pressure Humidity
    00:00 +20°C° 0 mm 1 mps 747 mmHg 75%
    01:00 +20°C° 0 mm 1 mps 747 mmHg 76%
    02:00 +20°C° 0 mm 1 mps 747 mmHg 78%
    03:00 +19°C° 0 mm 1 mps 747 mmHg 79%
    04:00 +20°C° 0 mm 1 mps 747 mmHg 78%
    05:00 +21°C° 0 mm 1 mps 747 mmHg 76%
    06:00 +21°C° 0 mm 2 mps 747 mmHg 75%
    07:00 +24°C° 0 mm 2 mps 747 mmHg 70%
    08:00 +26°C° 0 mm 2 mps 747 mmHg 65%
    09:00 +27°C° 0 mm 3 mps 747 mmHg 59%
    10:00 +28°C° 0 mm 3 mps 747 mmHg 55%
    11:00 +29°C° 0 mm 3 mps 747 mmHg 51%
    12:00 +30°C° 0 mm 3 mps 747 mmHg 47%
    13:00 +30°C° 0 mm 3 mps 747 mmHg 46%
    14:00 +30°C° 0 mm 3 mps 747 mmHg 45%
    15:00 +31°C° 0 mm 3 mps 746 mmHg 44%
    16:00 +30°C° 0 mm 3 mps 746 mmHg 48%
    17:00 +30°C° 0 mm 2 mps 746 mmHg 51%
    18:00 +30°C° 0 mm 2 mps 746 mmHg 55%
    19:00 +28°C° 0 mm 2 mps 746 mmHg 58%
    20:00 +26°C° 0 mm 3 mps 746 mmHg 62%
    21:00 +24°C° 0 mm 3 mps 746 mmHg 65%
    22:00 +22°C° 0 mm 3 mps 746 mmHg 66%
    23:00 +22°C° 0 mm 3 mps 746 mmHg 66%

    24 June, Sunday

    Time Temperature Precipitation Wind Pressure Humidity
    00:00 +21°C° 0 mm 3 mps 746 mmHg 67%
    01:00 +21°C° 0 mm 3 mps 746 mmHg 66%
    02:00 +21°C° 0 mm 3 mps 745 mmHg 65%
    03:00 +20°C° 0 mm 3 mps 745 mmHg 64%
    04:00 +21°C° 0 mm 4 mps 745 mmHg 63%
    05:00 +21°C° 0 mm 4 mps 745 mmHg 62%
    06:00 +21°C° 0 mm 4 mps 745 mmHg 61%
    07:00 +23°C° 0 mm 4 mps 745 mmHg 56%
    08:00 +26°C° 0 mm 5 mps 745 mmHg 51%
    09:00 +28°C° 0 mm 6 mps 745 mmHg 46%
    10:00 +29°C° 0 mm 5 mps 746 mmHg 45%
    11:00 +30°C° 0 mm 5 mps 746 mmHg 44%
    12:00 +30°C° 0 mm 4 mps 746 mmHg 44%
    13:00 +32°C° 0 mm 4 mps 746 mmHg 44%
    14:00 +32°C° 0 mm 4 mps 746 mmHg 45%
    15:00 +32°C° 0 mm 5 mps 746 mmHg 45%
    16:00 +29°C° 0.1 mm 4 mps 746 mmHg 56%
    17:00 +26°C° 0.1 mm 4 mps 746 mmHg 67%
    18:00 +23°C° 0.1 mm 4 mps 746 mmHg 78%
    19:00 +22°C° 0.2 mm 3 mps 746 mmHg 81%
    20:00 +21°C° 0.2 mm 2 mps 746 mmHg 84%
    21:00 +21°C° 0.2 mm 1 mps 746 mmHg 87%
    22:00 +20°C° 0 mm 1 mps 746 mmHg 88%
    23:00 +20°C° 0 mm 1 mps 746 mmHg 89%

    25 June, Monday

    Time Temperature Precipitation Wind Pressure Humidity
    00:00 +20°C° 0 mm 1 mps 747 mmHg 90%
    01:00 +19°C° 0.1 mm 1 mps 747 mmHg 91%
    02:00 +18°C° 0.1 mm 2 mps 747 mmHg 93%
    03:00 +17°C° 0.1 mm 2 mps 747 mmHg 94%
    04:00 +18°C° 0 mm 2 mps 747 mmHg 94%
    05:00 +18°C° 0 mm 3 mps 747 mmHg 93%
    06:00 +19°C° 0 mm 3 mps 747 mmHg 92%
    07:00 +19°C° 0 mm 3 mps 747 mmHg 89%
    08:00 +20°C° 0 mm 3 mps 748 mmHg 86%
    09:00 +21°C° 0 mm 4 mps 748 mmHg 83%
    10:00 +21°C° 0 mm 4 mps 748 mmHg 78%
    11:00 +22°C° 0 mm 4 mps 748 mmHg 73%
    12:00 +23°C° 0 mm 4 mps 748 mmHg 68%
    13:00 +25°C° 0 mm 4 mps 748 mmHg 65%
    14:00 +25°C° 0 mm 5 mps 748 mmHg 62%
    15:00 +26°C° 0 mm 5 mps 748 mmHg 59%
    16:00 +25°C° 0 mm 5 mps 748 mmHg 61%
    17:00 +25°C° 0 mm 4 mps 748 mmHg 63%
    18:00 +25°C° 0 mm 4 mps 748 mmHg 64%
    19:00 +22°C° 0 mm 4 mps 748 mmHg 69%
    20:00 +20°C° 0 mm 3 mps 749 mmHg 74%
    21:00 +18°C° 0 mm 3 mps 749 mmHg 79%
    22:00 +17°C° 0 mm 3 mps 749 mmHg 81%
    23:00 +17°C° 0 mm 3 mps 749 mmHg 83%
    Show more